Location: Winthrop
(48.4780°N, 120.1850°W)
Time: 16:08:04
(UTC-07:00)

Vanguard 3 - Pass Details

Date: 14 February 2023
Orbit: 508 x 3249 km, 33.3° (Epoch: 22 March)

Event Time Altitude Azimuth Distance (km) Brightness Sun altitude
Rises 18:54:52 0° 250° (WSW) 3,544 11.9 -16.1°
Reaches altitude 10° 18:57:29 10° 237° (WSW) 2,897 10.8 -16.6°
Maximum altitude 19:03:14 25° 184° (S) 2,578 9.7 -17.5°
Drops below altitude 10° 19:11:52 10° 136° (SE) 4,511 10.5 -19.0°
Enters shadow 19:12:35 - 134° (SE) 4,708 10.6 -19.1°
